This demonstration page uses our WeatherBlox Daily Observations layout. Learn more.

Left ArrowRight Arrow

Hourly Observations for May 4, 2018

Temp ( °F °C ) Dew Point ( °F °C ) Humidity (%) Winds ( mph kmh ) Pressure ( in mb ) Visibility ( mi km ) Precip ( " mm )
12:53 am 00:53 Clear 60 15.6 55 12.8 84 84 undefined N/A 30.15 1021 10 16 0.00 0.00
1:53 am 01:53 Clear 59 15 54 12.2 83 83 Calm 30.16 1021 10 16 0.00 0.00
2:53 am 02:53 Clear 58 14.4 54 12.2 87 87 Calm 30.15 1021 10 16 0.00 0.00
3:53 am 03:53 Clear 56 13.3 53 11.7 90 90 NW 5 7 30.16 1021 10 16 0.00 0.00
4:53 am 04:53 Clear 56 13.3 52 11.1 87 87 Calm 30.17 1022 10 16 0.00 0.00
5:53 am 05:53 Clear 55 12.8 52 11.1 90 90 Calm 30.18 1022 10 16 0.00 0.00
6:53 am 06:53 Sunny 56 13.3 53 11.7 90 90 Calm 30.20 1023 10 16 0.00 0.00
7:53 am 07:53 Sunny 62 16.7 53 11.7 73 73 Calm 30.21 1023 10 16 0.00 0.00
8:53 am 08:53 Sunny 66 18.9 53 11.7 63 63 VRB 3 6 30.21 1023 10 16 0.00 0.00
9:53 am 09:53 Sunny 68 20 54 12.2 61 61 Calm 30.22 1023 10 16 0.00 0.00
10:53 am 10:53 Sunny 71 21.7 54 12.2 55 55 WNW 3 6 30.23 1024 10 16 0.00 0.00
11:53 am 11:53 Sunny 73 22.8 54 12.2 51 51 Calm 30.21 1023 10 16 0.00 0.00
12:53 pm 12:53 Sunny 76 24.4 55 12.8 48 48 NW 3 6 30.19 1022 10 16 0.00 0.00
1:53 pm 13:53 Sunny 78 25.6 53 11.7 42 42 Calm 30.16 1021 10 16 0.00 0.00
2:53 pm 14:53 Sunny 81 27.2 53 11.7 38 38 VRB 3 6 30.13 1020 10 16 0.00 0.00
3:53 pm 15:53 Sunny 81 27.2 52 11.1 37 37 Calm 30.10 1019 10 16 0.00 0.00
4:53 pm 16:53 Sunny 81 27.2 52 11.1 37 37 SSE 3 6 30.08 1019 10 16 0.00 0.00
5:53 pm 17:53 Sunny 82 27.8 50 10 33 33 Calm 30.06 1018 10 16 0.00 0.00
6:53 pm 18:53 Sunny 81 27.2 47 8.3 30 30 S 7 11 30.05 1018 10 16 0.00 0.00
7:53 pm 19:53 Sunny 77 25 54 12.2 45 45 E 3 6 30.05 1018 10 16 0.00 0.00
8:53 pm 20:53 Clear 73 22.8 55 12.8 53 53 Calm 30.05 1018 10 16 0.00 0.00
9:53 pm 21:53 Clear 68 20 55 12.8 63 63 Calm 30.06 1018 10 16 0.00 0.00
10:53 pm 22:53 Clear 68 20 55 12.8 63 63 NNW 5 7 30.05 1018 10 16 0.00 0.00
11:53 pm 23:53 Clear 68 20 55 12.8 63 63 N 5 7 30.05 1018 10 16 0.00 0.00

Powered by AerisWeather